Location: Unspecified
(0.0000°N, 0.0000°E)
Time: 21:44:37
(UTC+00:00)

ISS - Pass Details

Date: 11 September 2018
Orbit: 411 x 421 km, 51.6° (Epoch: 19 October)

Event Time Altitude Azimuth Distance (km) Brightness Sun altitude
Rises 08:47:06 0° 309° (NW) 2,337 -0.3 42.4°
Reaches altitude 10° 08:49:18 10° 298° (WNW) 1,483 -1.2 43.0°
Maximum altitude 08:52:18 31° 234° (SW) 766 -2.5 43.7°
Drops below altitude 10° 08:55:20 10° 170° (S) 1,506 -0.8 44.5°
Sets 08:57:36 0° 159° (SSE) 2,380 0.2 45.0°
